Regional Weather Roundup
Issued by NWS Goodland, KS

Home | Current Version | Previous Version | Text Only | Print | Product List | Glossary On
Versions: 1 2 3 4 5 6 7 8 9 10 11 12 13 14 15 16 17 18 19 20 21 22 23 24 25 26 27 28 29 30 31 32 33 34 35 36 37 38 39 40 41 42 43 44 45 46 47 48 49 50
000
ASUS43 KGLD 251308
RWRGLD

GOODLAND FORECAST AREA HOURLY WEATHER ROUNDUP
NATIONAL WEATHER SERVICE GOODLAND KS
700 AM MDT WED MAY 25 2016

...OFFICIAL OBSERVATIONS...

CITY           SKY/WX    TMP DP  RH WIND       PRES   REMARKS
GOODLAND KS    CLOUDY    56  55  97 E15       29.90S
HILL CITY KS   CLOUDY    61  56  83 NE14      29.87R
IMPERIAL NEB   SUNNY     58  52  80 SE5       29.91R
MCCOOK NEB     MOSUNNY   62  55  77 SE14G20   29.86F
AKRON CO       CLOUDY    54  51  90 SE8       29.97R
BURLINGTON CO  FOG       56  54  93 NE12      29.94R VSB 1/4
LIMON CO       CLOUDY    51  50  96 NW13      30.00R FOG
$$

...UNOFFICIAL OBSERVATIONS...

CITY           SKY/WX    TMP DP  RH WIND       PRES   REMARKS
COLBY KS       CLOUDY    61  61 100 NE17      29.91S
GOVE KS          N/A     60  32  34 MISG        N/A
LENORA KS        N/A     60  32  34 MISG        N/A
NORTON KS      CLOUDY    61  54  77 NE14      29.88S
SHARON SPRINGS   N/A     58  56  95 N13         N/A
KIT CARSON CO    N/A     55  52  89 MISG        N/A
YUMA CO          N/A     56  53  91 CALM        N/A
$$




USA.gov is the U.S. government's official web portal to all federal, state and local government web resources and services.